{"data":{"norad_id":64254,"epoch":"2026-05-24T23:36:36.431136Z","epoch_age_seconds":73893,"freshness":"FRESH","line1":"1 64254U 25119X   26144.98375499  .00013475  00000+0  49819-3 0  9993","line2":"2 64254  43.0002 236.5136 0002010 264.1126  95.9496 15.27586360 55839","mean_motion":15.2758636,"eccentricity":0.000201,"inclination_deg":43.0002,"raan_deg":236.5136,"arg_perigee_deg":264.1126,"mean_anomaly_deg":95.9496,"bstar":0.00049819,"rev_number":5583,"period_min":94.266356240573,"perigee_km":481.65095740028,"apogee_km":484.40914655518,"semimajor_km":6861.1670519777,"source":"CELESTRAK","updated_at":"2026-05-25T13:38:20.355826Z"}}